Hlavní strana
METAR-TAF:

METAR-TAF

Letiště :

Mount Carmel Municipal Airport

Mount Carmel, Illinois, Spojené státy americké

zeměpisná šířka: 38-36-23N, zeměpisná délka: 087-43-36W, výška: 131 m

Aktuální stav počasí

Zpráva byla vytvořena před 25 minutami, v 17:55 UTC
Jihojihovýchodní vítr 4 kt
Teplota 3°C
Vlhkost vzduchu 81%
Tlak 1021 hPa
Viditelnost: 16.1 km
Zataženo ve výšce 1500 ft

METAR: KAJG 181755Z AUTO 15004KT 10SM OVC015 03/00 A3016 RMK AO2 T00280000 10029 20000

Čas: 12:20 (18:20 UTC)


TAF: chybějící

Stav a předpovědi počasí z více než 4 000 letišť (zprávy METAR a TAF).

Červené a žluté tečky na mapě představují dostupné meteorologické stanice.

Když kurzor umístíte na tečku, zobrazí se název stanice.

Pak kliknutím zobrazíte stav a předpověď počasí.

Chcete-li změnit mapu, kliknutím na zelené tlačítko se znaménkem +mapu přiblížíte, kliknutím na zelené tlačítko se znaménkem – mapu oddálíte a kliknutím na zelené šipky přejdete na sousední mapy.


METAR-TAF: